owner,sensor,date,latitude,longitude,vertical_datum,wind_speed,wind_to_direction,wind_speed_of_gust,qcFlag 
DISL,ioos:station:DISL:MBLA:1,2008-02-01T00:00:00Z,30.4367,-88.0117,14.2,11.23,168.7,-9999.0,'1111122,1111122,1111122' 
DISL,ioos:station:DISL:MBLA:1,2008-02-01T00:30:00Z,30.4367,-88.0117,14.2,9.66,175.8,-9999.0,'1111122,1111122,1111122' 
DISL,ioos:station:DISL:MBLA:1,2008-02-01T01:00:00Z,30.4367,-88.0117,14.2,10.48,171.8,-9999.0,'1111122,1111122,1111122' 
DISL,ioos:station:DISL:MBLA:1,2008-02-01T01:30:00Z,30.4367,-88.0117,14.2,9.37,164.2,-9999.0,'1111122,1111122,1111122' 
DISL,ioos:station:DISL:MBLA:1,2008-02-01T02:00:00Z,30.4367,-88.0117,14.2,7.8,180.0,-9999.0,'1111122,1111122,1111122' 
DISL,ioos:station:DISL:MBLA:1,2008-02-01T02:30:00Z,30.4367,-88.0117,14.2,9.75,233.6,-9999.0,'1111122,1111122,1111122' 
DISL,ioos:station:DISL:MBLA:1,2008-02-01T03:00:00Z,30.4367,-88.0117,14.2,7.01,230.0,-9999.0,'1111122,1111122,1111122' 
DISL,ioos:station:DISL:MBLA:1,2008-02-01T03:30:00Z,30.4367,-88.0117,14.2,5.8,234.7,-9999.0,'1111122,1111122,1111122' 
DISL,ioos:station:DISL:MBLA:1,2008-02-01T04:00:00Z,30.4367,-88.0117,14.2,6.16,239.7,-9999.0,'1111122,1111122,1111122' 
DISL,ioos:station:DISL:MBLA:1,2008-02-01T04:30:00Z,30.4367,-88.0117,14.2,5.96,257.6,-9999.0,'1111122,1111122,1111122' 
DISL,ioos:station:DISL:MBLA:1,2008-02-01T05:00:00Z,30.4367,-88.0117,14.2,5.74,272.3,-9999.0,'1111122,1111122,1111122' 
DISL,ioos:station:DISL:MBLA:1,2008-02-01T05:30:00Z,30.4367,-88.0117,14.2,9.34,294.7,-9999.0,'1111122,1111122,1111122' 
DISL,ioos:station:DISL:MBLA:1,2008-02-01T06:00:00Z,30.4367,-88.0117,14.2,10.36,298.5,-9999.0,'1111122,1111122,1111122' 
DISL,ioos:station:DISL:MBLA:1,2008-02-01T06:30:00Z,30.4367,-88.0117,14.2,10.97,300.8,-9999.0,'1111122,1111122,1111122' 
DISL,ioos:station:DISL:MBLA:1,2008-02-01T07:00:00Z,30.4367,-88.0117,14.2,9.64,307.8,-9999.0,'1111122,1111122,1111122' 
DISL,ioos:station:DISL:MBLA:1,2008-02-01T07:30:00Z,30.4367,-88.0117,14.2,7.69,304.5,-9999.0,'1111122,1111122,1111122' 
DISL,ioos:station:DISL:MBLA:1,2008-02-01T08:00:00Z,30.4367,-88.0117,14.2,8.74,302.2,-9999.0,'1111122,1111122,1111122' 
DISL,ioos:station:DISL:MBLA:1,2008-02-01T08:30:00Z,30.4367,-88.0117,14.2,6.84,291.7,-9999.0,'1111122,1111122,1111122' 
DISL,ioos:station:DISL:MBLA:1,2008-02-01T09:00:00Z,30.4367,-88.0117,14.2,8.57,297.4,-9999.0,'1111122,1111122,1111122' 
DISL,ioos:station:DISL:MBLA:1,2008-02-01T09:30:00Z,30.4367,-88.0117,14.2,10.09,303.7,-9999.0,'1111122,1111122,1111122' 
DISL,ioos:station:DISL:MBLA:1,2008-02-01T10:00:00Z,30.4367,-88.0117,14.2,9.52,310.3,-9999.0,'1111122,1111122,1111122' 
DISL,ioos:station:DISL:MBLA:1,2008-02-01T10:30:00Z,30.4367,-88.0117,14.2,8.41,308.7,-9999.0,'1111122,1111122,1111122' 
DISL,ioos:station:DISL:MBLA:1,2008-02-01T11:00:00Z,30.4367,-88.0117,14.2,8.39,301.7,-9999.0,'1111122,1111122,1111122' 
DISL,ioos:station:DISL:MBLA:1,2008-02-01T11:30:00Z,30.4367,-88.0117,14.2,9.87,310.1,-9999.0,'1111122,1111122,1111122' 
DISL,ioos:station:DISL:MBLA:1,2008-02-01T12:00:00Z,30.4367,-88.0117,14.2,10.72,311.4,-9999.0,'1111122,1111122,1111122' 
DISL,ioos:station:DISL:MBLA:1,2008-02-01T12:30:00Z,30.4367,-88.0117,14.2,9.36,306.9,-9999.0,'1111122,1111122,1111122' 
DISL,ioos:station:DISL:MBLA:1,2008-02-01T13:00:00Z,30.4367,-88.0117,14.2,9.71,320.1,-9999.0,'1111122,1111122,1111122' 
DISL,ioos:station:DISL:MBLA:1,2008-02-01T13:30:00Z,30.4367,-88.0117,14.2,10.07,314.7,-9999.0,'1111122,1111122,1111122' 
DISL,ioos:station:DISL:MBLA:1,2008-02-01T14:00:00Z,30.4367,-88.0117,14.2,8.43,331.1,-9999.0,'1111122,1111122,1111122' 
DISL,ioos:station:DISL:MBLA:1,2008-02-01T14:30:00Z,30.4367,-88.0117,14.2,7.23,335.3,-9999.0,'1111122,1111122,1111122' 
DISL,ioos:station:DISL:MBLA:1,2008-02-01T15:00:00Z,30.4367,-88.0117,14.2,5.48,345.2,-9999.0,'1111122,1111122,1111122' 
DISL,ioos:station:DISL:MBLA:1,2008-02-01T15:30:00Z,30.4367,-88.0117,14.2,6.09,349.9,-9999.0,'1111122,1111122,1111122' 
DISL,ioos:station:DISL:MBLA:1,2008-02-01T16:00:00Z,30.4367,-88.0117,14.2,4.72,2.471,-9999.0,'1111122,1111122,1111122' 
DISL,ioos:station:DISL:MBLA:1,2008-02-01T16:30:00Z,30.4367,-88.0117,14.2,3.79,27.59,-9999.0,'1111122,1111122,1111122' 
DISL,ioos:station:DISL:MBLA:1,2008-02-01T17:00:00Z,30.4367,-88.0117,14.2,4.33,24.91,-9999.0,'1111122,1111122,1111122' 
DISL,ioos:station:DISL:MBLA:1,2008-02-01T17:30:00Z,30.4367,-88.0117,14.2,4.28,28.44,-9999.0,'1111122,1111122,1111122' 
DISL,ioos:station:DISL:MBLA:1,2008-02-01T18:00:00Z,30.4367,-88.0117,14.2,4.97,28.24,-9999.0,'1111122,1111122,1111122' 
DISL,ioos:station:DISL:MBLA:1,2008-02-01T18:30:00Z,30.4367,-88.0117,14.2,4.67,35.54,-9999.0,'1111122,1111122,1111122' 
DISL,ioos:station:DISL:MBLA:1,2008-02-01T19:00:00Z,30.4367,-88.0117,14.2,4.51,38.73,-9999.0,'1111122,1111122,1111122' 
DISL,ioos:station:DISL:MBLA:1,2008-02-01T19:30:00Z,30.4367,-88.0117,14.2,3.39,42.03,-9999.0,'1111122,1111122,1111122' 
DISL,ioos:station:DISL:MBLA:1,2008-02-01T20:00:00Z,30.4367,-88.0117,14.2,3.68,49.37,-9999.0,'1111122,1111122,1111122' 
DISL,ioos:station:DISL:MBLA:1,2008-02-01T20:30:00Z,30.4367,-88.0117,14.2,3.81,58.55,-9999.0,'1111122,1111122,1111122' 
DISL,ioos:station:DISL:MBLA:1,2008-02-01T21:00:00Z,30.4367,-88.0117,14.2,2.82,57.92,-9999.0,'1111122,1111122,1111122' 
DISL,ioos:station:DISL:MBLA:1,2008-02-01T21:30:00Z,30.4367,-88.0117,14.2,1.62,49.87,-9999.0,'1111122,1111122,1111122' 
DISL,ioos:station:DISL:MBLA:1,2008-02-01T22:00:00Z,30.4367,-88.0117,14.2,0.5,11.64,-9999.0,'1111122,1111122,1111122' 
DISL,ioos:station:DISL:MBLA:1,2008-02-01T22:30:00Z,30.4367,-88.0117,14.2,3.67,224.6,-9999.0,'1111122,1111122,1111122' 
DISL,ioos:station:DISL:MBLA:1,2008-02-01T23:00:00Z,30.4367,-88.0117,14.2,1.15,282.6,-9999.0,'1111122,1111122,1111122' 
DISL,ioos:station:DISL:MBLA:1,2008-02-01T23:30:00Z,30.4367,-88.0117,14.2,2.32,290.3,-9999.0,'1111122,1111122,1111122' 
DISL,ioos:station:DISL:MBLA:1,2008-02-02T00:00:00Z,30.4367,-88.0117,14.2,1.89,280.8,-9999.0,'1111122,1111122,1111122' 
DISL,ioos:station:DISL:MBLA:1,2008-02-02T00:30:00Z,30.4367,-88.0117,14.2,2.41,280.7,-9999.0,'1111122,1111122,1111122' 
DISL,ioos:station:DISL:MBLA:1,2008-02-02T01:00:00Z,30.4367,-88.0117,14.2,2.63,243.7,-9999.0,'1111122,1111122,1111122' 
DISL,ioos:station:DISL:MBLA:1,2008-02-02T01:30:00Z,30.4367,-88.0117,14.2,3.94,231.2,-9999.0,'1111122,1111122,1111122' 
DISL,ioos:station:DISL:MBLA:1,2008-02-02T02:00:00Z,30.4367,-88.0117,14.2,1.05,279.2,-9999.0,'1111122,1111122,1111122' 
DISL,ioos:station:DISL:MBLA:1,2008-02-02T02:30:00Z,30.4367,-88.0117,14.2,1.49,48.73,-9999.0,'1111122,1111122,1111122' 
DISL,ioos:station:DISL:MBLA:1,2008-02-02T03:00:00Z,30.4367,-88.0117,14.2,1.56,93.6,-9999.0,'1111122,1111122,1111122' 
DISL,ioos:station:DISL:MBLA:1,2008-02-02T03:30:00Z,30.4367,-88.0117,14.2,3.98,89.8,-9999.0,'1111122,1111122,1111122' 
DISL,ioos:station:DISL:MBLA:1,2008-02-02T04:00:00Z,30.4367,-88.0117,14.2,5.71,94.9,-9999.0,'1111122,1111122,1111122' 
DISL,ioos:station:DISL:MBLA:1,2008-02-02T04:30:00Z,30.4367,-88.0117,14.2,4.98,105.4,-9999.0,'1111122,1111122,1111122' 
DISL,ioos:station:DISL:MBLA:1,2008-02-02T05:00:00Z,30.4367,-88.0117,14.2,5.89,113.4,-9999.0,'1111122,1111122,1111122' 
DISL,ioos:station:DISL:MBLA:1,2008-02-02T05:30:00Z,30.4367,-88.0117,14.2,3.79,145.9,-9999.0,'1111122,1111122,1111122' 
DISL,ioos:station:DISL:MBLA:1,2008-02-02T06:00:00Z,30.4367,-88.0117,14.2,1.66,121.8,-9999.0,'1111122,1111122,1111122' 
DISL,ioos:station:DISL:MBLA:1,2008-02-02T06:30:00Z,30.4367,-88.0117,14.2,1.65,62.71,-9999.0,'1111122,1111122,1111122' 
DISL,ioos:station:DISL:MBLA:1,2008-02-02T07:00:00Z,30.4367,-88.0117,14.2,3.25,76.6,-9999.0,'1111122,1111122,1111122' 
DISL,ioos:station:DISL:MBLA:1,2008-02-02T07:30:00Z,30.4367,-88.0117,14.2,3.25,93.9,-9999.0,'1111122,1111122,1111122' 
DISL,ioos:station:DISL:MBLA:1,2008-02-02T08:00:00Z,30.4367,-88.0117,14.2,4.29,104.1,-9999.0,'1111122,1111122,1111122' 
DISL,ioos:station:DISL:MBLA:1,2008-02-02T08:30:00Z,30.4367,-88.0117,14.2,4.51,99.8,-9999.0,'1111122,1111122,1111122' 
DISL,ioos:station:DISL:MBLA:1,2008-02-02T09:00:00Z,30.4367,-88.0117,14.2,4.82,96.8,-9999.0,'1111122,1111122,1111122' 
DISL,ioos:station:DISL:MBLA:1,2008-02-02T09:30:00Z,30.4367,-88.0117,14.2,5.17,86.0,-9999.0,'1111122,1111122,1111122' 
DISL,ioos:station:DISL:MBLA:1,2008-02-02T10:00:00Z,30.4367,-88.0117,14.2,5.1,80.4,-9999.0,'1111122,1111122,1111122' 
DISL,ioos:station:DISL:MBLA:1,2008-02-02T10:30:00Z,30.4367,-88.0117,14.2,4.02,50.04,-9999.0,'1111122,1111122,1111122' 
DISL,ioos:station:DISL:MBLA:1,2008-02-02T11:00:00Z,30.4367,-88.0117,14.2,4.06,19.24,-9999.0,'1111122,1111122,1111122' 
DISL,ioos:station:DISL:MBLA:1,2008-02-02T11:30:00Z,30.4367,-88.0117,14.2,4.5,35.79,-9999.0,'1111122,1111122,1111122' 
DISL,ioos:station:DISL:MBLA:1,2008-02-02T12:00:00Z,30.4367,-88.0117,14.2,4.54,52.4,-9999.0,'1111122,1111122,1111122' 
DISL,ioos:station:DISL:MBLA:1,2008-02-02T12:30:00Z,30.4367,-88.0117,14.2,4.5,52.78,-9999.0,'1111122,1111122,1111122' 
DISL,ioos:station:DISL:MBLA:1,2008-02-02T13:00:00Z,30.4367,-88.0117,14.2,5.19,67.85,-9999.0,'1111122,1111122,1111122' 
DISL,ioos:station:DISL:MBLA:1,2008-02-02T13:30:00Z,30.4367,-88.0117,14.2,6.15,80.5,-9999.0,'1111122,1111122,1111122' 
DISL,ioos:station:DISL:MBLA:1,2008-02-02T14:00:00Z,30.4367,-88.0117,14.2,8.1,91.4,-9999.0,'1111122,1111122,1111122' 
DISL,ioos:station:DISL:MBLA:1,2008-02-02T14:30:00Z,30.4367,-88.0117,14.2,6.0,87.4,-9999.0,'1111122,1111122,1111122' 
DISL,ioos:station:DISL:MBLA:1,2008-02-02T15:00:00Z,30.4367,-88.0117,14.2,2.2,35.47,-9999.0,'1111122,1111122,1111122' 
DISL,ioos:station:DISL:MBLA:1,2008-02-02T15:30:00Z,30.4367,-88.0117,14.2,2.23,70.6,-9999.0,'1111122,1111122,1111122' 
DISL,ioos:station:DISL:MBLA:1,2008-02-02T16:00:00Z,30.4367,-88.0117,14.2,1.94,90.6,-9999.0,'1111122,1111122,1111122' 
DISL,ioos:station:DISL:MBLA:1,2008-02-02T16:30:00Z,30.4367,-88.0117,14.2,0.42,284.3,-9999.0,'1111122,1111122,1111122' 
DISL,ioos:station:DISL:MBLA:1,2008-02-02T17:00:00Z,30.4367,-88.0117,14.2,0.0,308.9,-9999.0,'1114422,1111122,1111122' 
DISL,ioos:station:DISL:MBLA:1,2008-02-02T17:30:00Z,30.4367,-88.0117,14.2,0.8,326.5,-9999.0,'1111122,1111122,1111122' 
DISL,ioos:station:DISL:MBLA:1,2008-02-02T18:00:00Z,30.4367,-88.0117,14.2,0.17,273.2,-9999.0,'1111122,1111122,1111122' 
DISL,ioos:station:DISL:MBLA:1,2008-02-02T18:30:00Z,30.4367,-88.0117,14.2,1.89,300.4,-9999.0,'1111122,1111122,1111122' 
DISL,ioos:station:DISL:MBLA:1,2008-02-02T19:00:00Z,30.4367,-88.0117,14.2,1.7,281.0,-9999.0,'1111122,1111122,1111122' 
DISL,ioos:station:DISL:MBLA:1,2008-02-02T19:30:00Z,30.4367,-88.0117,14.2,0.75,285.7,-9999.0,'1111122,1111122,1111122' 
DISL,ioos:station:DISL:MBLA:1,2008-02-02T20:00:00Z,30.4367,-88.0117,14.2,0.46,250.2,-9999.0,'1111122,1111122,1111122' 
DISL,ioos:station:DISL:MBLA:1,2008-02-02T20:30:00Z,30.4367,-88.0117,14.2,0.0,0.0,-9999.0,'1114422,1114422,1111122' 
DISL,ioos:station:DISL:MBLA:1,2008-02-02T21:00:00Z,30.4367,-88.0117,14.2,0.0,0.0,-9999.0,'1114422,1114422,1111122' 
DISL,ioos:station:DISL:MBLA:1,2008-02-02T21:30:00Z,30.4367,-88.0117,14.2,0.0,0.0,-9999.0,'1114422,1114422,1111122' 
DISL,ioos:station:DISL:MBLA:1,2008-02-02T22:00:00Z,30.4367,-88.0117,14.2,0.0,0.0,-9999.0,'1114422,1114422,1111122' 
DISL,ioos:station:DISL:MBLA:1,2008-02-02T22:30:00Z,30.4367,-88.0117,14.2,1.54,156.2,-9999.0,'1111122,1111122,1111122' 
DISL,ioos:station:DISL:MBLA:1,2008-02-02T23:00:00Z,30.4367,-88.0117,14.2,1.47,143.2,-9999.0,'1111122,1111122,1111122' 
DISL,ioos:station:DISL:MBLA:1,2008-02-02T23:30:00Z,30.4367,-88.0117,14.2,2.63,142.1,-9999.0,'1111122,1111122,1111122' 
DISL,ioos:station:DISL:MBLA:1,2008-02-03T00:00:00Z,30.4367,-88.0117,14.2,3.65,149.3,-9999.0,'1111122,1111122,1111122' 
DISL,ioos:station:DISL:MBLA:1,2008-02-03T00:30:00Z,30.4367,-88.0117,14.2,5.07,131.2,-9999.0,'1111122,1111122,1111122' 
DISL,ioos:station:DISL:MBLA:1,2008-02-03T01:00:00Z,30.4367,-88.0117,14.2,5.08,117.0,-9999.0,'1111122,1111122,1111122' 
DISL,ioos:station:DISL:MBLA:1,2008-02-03T01:30:00Z,30.4367,-88.0117,14.2,5.35,112.2,-9999.0,'1111122,1111122,1111122' 
DISL,ioos:station:DISL:MBLA:1,2008-02-03T02:00:00Z,30.4367,-88.0117,14.2,5.24,108.4,-9999.0,'1111122,1111122,1111122' 
DISL,ioos:station:DISL:MBLA:1,2008-02-03T02:30:00Z,30.4367,-88.0117,14.2,4.89,101.8,-9999.0,'1111122,1111122,1111122' 
DISL,ioos:station:DISL:MBLA:1,2008-02-03T03:00:00Z,30.4367,-88.0117,14.2,4.1,101.5,-9999.0,'1111122,1111122,1111122' 
DISL,ioos:station:DISL:MBLA:1,2008-02-03T03:30:00Z,30.4367,-88.0117,14.2,3.82,83.6,-9999.0,'1111122,1111122,1111122' 
DISL,ioos:station:DISL:MBLA:1,2008-02-03T04:00:00Z,30.4367,-88.0117,14.2,3.84,88.2,-9999.0,'1111122,1111122,1111122' 
DISL,ioos:station:DISL:MBLA:1,2008-02-03T04:30:00Z,30.4367,-88.0117,14.2,4.18,86.0,-9999.0,'1111122,1111122,1111122' 
DISL,ioos:station:DISL:MBLA:1,2008-02-03T05:00:00Z,30.4367,-88.0117,14.2,4.59,92.2,-9999.0,'1111122,1111122,1111122' 
DISL,ioos:station:DISL:MBLA:1,2008-02-03T05:30:00Z,30.4367,-88.0117,14.2,5.48,103.9,-9999.0,'1111122,1111122,1111122' 
DISL,ioos:station:DISL:MBLA:1,2008-02-03T06:00:00Z,30.4367,-88.0117,14.2,4.72,100.3,-9999.0,'1111122,1111122,1111122' 
DISL,ioos:station:DISL:MBLA:1,2008-02-03T06:30:00Z,30.4367,-88.0117,14.2,4.32,108.8,-9999.0,'1111122,1111122,1111122' 
DISL,ioos:station:DISL:MBLA:1,2008-02-03T07:00:00Z,30.4367,-88.0117,14.2,4.05,112.7,-9999.0,'1111122,1111122,1111122' 
DISL,ioos:station:DISL:MBLA:1,2008-02-03T07:30:00Z,30.4367,-88.0117,14.2,3.29,111.6,-9999.0,'1111122,1111122,1111122' 
DISL,ioos:station:DISL:MBLA:1,2008-02-03T08:00:00Z,30.4367,-88.0117,14.2,2.46,98.2,-9999.0,'1111122,1111122,1111122' 
DISL,ioos:station:DISL:MBLA:1,2008-02-03T08:30:00Z,30.4367,-88.0117,14.2,2.92,98.0,-9999.0,'1111122,1111122,1111122' 
DISL,ioos:station:DISL:MBLA:1,2008-02-03T09:00:00Z,30.4367,-88.0117,14.2,3.95,99.3,-9999.0,'1111122,1111122,1111122' 
DISL,ioos:station:DISL:MBLA:1,2008-02-03T09:30:00Z,30.4367,-88.0117,14.2,4.87,104.9,-9999.0,'1111122,1111122,1111122' 
DISL,ioos:station:DISL:MBLA:1,2008-02-03T10:00:00Z,30.4367,-88.0117,14.2,4.73,116.0,-9999.0,'1111122,1111122,1111122' 
DISL,ioos:station:DISL:MBLA:1,2008-02-03T10:30:00Z,30.4367,-88.0117,14.2,3.2,108.9,-9999.0,'1111122,1111122,1111122' 
DISL,ioos:station:DISL:MBLA:1,2008-02-03T11:00:00Z,30.4367,-88.0117,14.2,4.4,119.1,-9999.0,'1111122,1111122,1111122' 
DISL,ioos:station:DISL:MBLA:1,2008-02-03T11:30:00Z,30.4367,-88.0117,14.2,3.87,122.3,-9999.0,'1111122,1111122,1111122' 
DISL,ioos:station:DISL:MBLA:1,2008-02-03T12:00:00Z,30.4367,-88.0117,14.2,3.14,106.7,-9999.0,'1111122,1111122,1111122' 
DISL,ioos:station:DISL:MBLA:1,2008-02-03T12:30:00Z,30.4367,-88.0117,14.2,3.82,111.2,-9999.0,'1111122,1111122,1111122' 
DISL,ioos:station:DISL:MBLA:1,2008-02-03T13:00:00Z,30.4367,-88.0117,14.2,5.07,115.4,-9999.0,'1111122,1111122,1111122' 
DISL,ioos:station:DISL:MBLA:1,2008-02-03T13:30:00Z,30.4367,-88.0117,14.2,2.68,103.1,-9999.0,'1111122,1111122,1111122' 
DISL,ioos:station:DISL:MBLA:1,2008-02-03T14:00:00Z,30.4367,-88.0117,14.2,3.99,94.7,-9999.0,'1111122,1111122,1111122' 
DISL,ioos:station:DISL:MBLA:1,2008-02-03T14:30:00Z,30.4367,-88.0117,14.2,4.96,107.8,-9999.0,'1111122,1111122,1111122' 
DISL,ioos:station:DISL:MBLA:1,2008-02-03T15:00:00Z,30.4367,-88.0117,14.2,5.01,118.6,-9999.0,'1111122,1111122,1111122' 
DISL,ioos:station:DISL:MBLA:1,2008-02-03T15:30:00Z,30.4367,-88.0117,14.2,7.04,126.2,-9999.0,'1111122,1111122,1111122' 
DISL,ioos:station:DISL:MBLA:1,2008-02-03T16:00:00Z,30.4367,-88.0117,14.2,8.25,130.8,-9999.0,'1111122,1111122,1111122' 
DISL,ioos:station:DISL:MBLA:1,2008-02-03T16:30:00Z,30.4367,-88.0117,14.2,5.7,138.2,-9999.0,'1111122,1111122,1111122' 
DISL,ioos:station:DISL:MBLA:1,2008-02-03T17:00:00Z,30.4367,-88.0117,14.2,5.98,141.9,-9999.0,'1111122,1111122,1111122' 
DISL,ioos:station:DISL:MBLA:1,2008-02-03T17:30:00Z,30.4367,-88.0117,14.2,5.33,146.7,-9999.0,'1111122,1111122,1111122' 
DISL,ioos:station:DISL:MBLA:1,2008-02-03T18:00:00Z,30.4367,-88.0117,14.2,5.73,144.4,-9999.0,'1111122,1111122,1111122' 
DISL,ioos:station:DISL:MBLA:1,2008-02-03T18:30:00Z,30.4367,-88.0117,14.2,6.42,143.5,-9999.0,'1111122,1111122,1111122' 
DISL,ioos:station:DISL:MBLA:1,2008-02-03T19:00:00Z,30.4367,-88.0117,14.2,7.38,141.2,-9999.0,'1111122,1111122,1111122' 
DISL,ioos:station:DISL:MBLA:1,2008-02-03T19:30:00Z,30.4367,-88.0117,14.2,7.18,143.6,-9999.0,'1111122,1111122,1111122' 
DISL,ioos:station:DISL:MBLA:1,2008-02-03T20:00:00Z,30.4367,-88.0117,14.2,6.82,146.0,-9999.0,'1111122,1111122,1111122' 
DISL,ioos:station:DISL:MBLA:1,2008-02-03T20:30:00Z,30.4367,-88.0117,14.2,6.17,153.7,-9999.0,'1111122,1111122,1111122' 
DISL,ioos:station:DISL:MBLA:1,2008-02-03T21:00:00Z,30.4367,-88.0117,14.2,5.93,151.5,-9999.0,'1111122,1111122,1111122' 
DISL,ioos:station:DISL:MBLA:1,2008-02-03T21:30:00Z,30.4367,-88.0117,14.2,6.08,155.2,-9999.0,'1111122,1111122,1111122' 
DISL,ioos:station:DISL:MBLA:1,2008-02-03T22:00:00Z,30.4367,-88.0117,14.2,7.07,149.4,-9999.0,'1111122,1111122,1111122' 
DISL,ioos:station:DISL:MBLA:1,2008-02-03T22:30:00Z,30.4367,-88.0117,14.2,7.18,142.7,-9999.0,'1111122,1111122,1111122' 
DISL,ioos:station:DISL:MBLA:1,2008-02-03T23:00:00Z,30.4367,-88.0117,14.2,6.48,134.9,-9999.0,'1111122,1111122,1111122' 
DISL,ioos:station:DISL:MBLA:1,2008-02-03T23:30:00Z,30.4367,-88.0117,14.2,6.68,132.3,-9999.0,'1111122,1111122,1111122' 
DISL,ioos:station:DISL:MBLA:1,2008-02-04T00:00:00Z,30.4367,-88.0117,14.2,7.95,130.4,-9999.0,'1111122,1111122,1111122' 
DISL,ioos:station:DISL:MBLA:1,2008-02-04T00:30:00Z,30.4367,-88.0117,14.2,7.76,135.1,-9999.0,'1111122,1111122,1111122' 
DISL,ioos:station:DISL:MBLA:1,2008-02-04T01:00:00Z,30.4367,-88.0117,14.2,9.07,136.8,-9999.0,'1111122,1111122,1111122' 
DISL,ioos:station:DISL:MBLA:1,2008-02-04T01:30:00Z,30.4367,-88.0117,14.2,8.72,146.2,-9999.0,'1111122,1111122,1111122' 
DISL,ioos:station:DISL:MBLA:1,2008-02-04T02:00:00Z,30.4367,-88.0117,14.2,8.55,147.5,-9999.0,'1111122,1111122,1111122' 
DISL,ioos:station:DISL:MBLA:1,2008-02-04T02:30:00Z,30.4367,-88.0117,14.2,6.83,142.4,-9999.0,'1111122,1111122,1111122' 
DISL,ioos:station:DISL:MBLA:1,2008-02-04T03:00:00Z,30.4367,-88.0117,14.2,6.13,135.1,-9999.0,'1111122,1111122,1111122' 
DISL,ioos:station:DISL:MBLA:1,2008-02-04T03:30:00Z,30.4367,-88.0117,14.2,5.93,138.4,-9999.0,'1111122,1111122,1111122' 
DISL,ioos:station:DISL:MBLA:1,2008-02-04T04:00:00Z,30.4367,-88.0117,14.2,6.38,138.2,-9999.0,'1111122,1111122,1111122' 
DISL,ioos:station:DISL:MBLA:1,2008-02-04T04:30:00Z,30.4367,-88.0117,14.2,6.05,134.1,-9999.0,'1111122,1111122,1111122' 
DISL,ioos:station:DISL:MBLA:1,2008-02-04T05:00:00Z,30.4367,-88.0117,14.2,6.23,141.8,-9999.0,'1111122,1111122,1111122' 
DISL,ioos:station:DISL:MBLA:1,2008-02-04T05:30:00Z,30.4367,-88.0117,14.2,5.9,140.7,-9999.0,'1111122,1111122,1111122' 
DISL,ioos:station:DISL:MBLA:1,2008-02-04T06:00:00Z,30.4367,-88.0117,14.2,5.98,146.4,-9999.0,'1111122,1111122,1111122' 
DISL,ioos:station:DISL:MBLA:1,2008-02-04T06:30:00Z,30.4367,-88.0117,14.2,5.66,137.2,-9999.0,'1111122,1111122,1111122' 
DISL,ioos:station:DISL:MBLA:1,2008-02-04T07:00:00Z,30.4367,-88.0117,14.2,5.91,140.2,-9999.0,'1111122,1111122,1111122' 
DISL,ioos:station:DISL:MBLA:1,2008-02-04T07:30:00Z,30.4367,-88.0117,14.2,6.79,138.9,-9999.0,'1111122,1111122,1111122' 
DISL,ioos:station:DISL:MBLA:1,2008-02-04T08:00:00Z,30.4367,-88.0117,14.2,6.3,138.0,-9999.0,'1111122,1111122,1111122' 
DISL,ioos:station:DISL:MBLA:1,2008-02-04T08:30:00Z,30.4367,-88.0117,14.2,6.04,139.9,-9999.0,'1111122,1111122,1111122' 
DISL,ioos:station:DISL:MBLA:1,2008-02-04T09:00:00Z,30.4367,-88.0117,14.2,5.41,135.0,-9999.0,'1111122,1111122,1111122' 
DISL,ioos:station:DISL:MBLA:1,2008-02-04T09:30:00Z,30.4367,-88.0117,14.2,5.15,135.2,-9999.0,'1111122,1111122,1111122' 
DISL,ioos:station:DISL:MBLA:1,2008-02-04T10:00:00Z,30.4367,-88.0117,14.2,6.18,137.0,-9999.0,'1111122,1111122,1111122' 
DISL,ioos:station:DISL:MBLA:1,2008-02-04T10:30:00Z,30.4367,-88.0117,14.2,6.16,138.8,-9999.0,'1111122,1111122,1111122' 
DISL,ioos:station:DISL:MBLA:1,2008-02-04T11:00:00Z,30.4367,-88.0117,14.2,6.41,140.6,-9999.0,'1111122,1111122,1111122' 
DISL,ioos:station:DISL:MBLA:1,2008-02-04T11:30:00Z,30.4367,-88.0117,14.2,6.71,138.4,-9999.0,'1111122,1111122,1111122' 
DISL,ioos:station:DISL:MBLA:1,2008-02-04T12:00:00Z,30.4367,-88.0117,14.2,6.03,136.3,-9999.0,'1111122,1111122,1111122' 
DISL,ioos:station:DISL:MBLA:1,2008-02-04T12:30:00Z,30.4367,-88.0117,14.2,6.19,133.0,-9999.0,'1111122,1111122,1111122' 
DISL,ioos:station:DISL:MBLA:1,2008-02-04T13:00:00Z,30.4367,-88.0117,14.2,7.83,142.5,-9999.0,'1111122,1111122,1111122' 
DISL,ioos:station:DISL:MBLA:1,2008-02-04T13:30:00Z,30.4367,-88.0117,14.2,6.47,145.1,-9999.0,'1111122,1111122,1111122' 
DISL,ioos:station:DISL:MBLA:1,2008-02-04T14:00:00Z,30.4367,-88.0117,14.2,6.32,145.5,-9999.0,'1111122,1111122,1111122' 
DISL,ioos:station:DISL:MBLA:1,2008-02-04T14:30:00Z,30.4367,-88.0117,14.2,5.46,137.8,-9999.0,'1111122,1111122,1111122' 
DISL,ioos:station:DISL:MBLA:1,2008-02-04T15:00:00Z,30.4367,-88.0117,14.2,5.25,135.9,-9999.0,'1111122,1111122,1111122' 
DISL,ioos:station:DISL:MBLA:1,2008-02-04T15:30:00Z,30.4367,-88.0117,14.2,5.56,140.6,-9999.0,'1111122,1111122,1111122' 
DISL,ioos:station:DISL:MBLA:1,2008-02-04T16:00:00Z,30.4367,-88.0117,14.2,4.75,141.0,-9999.0,'1111122,1111122,1111122' 
DISL,ioos:station:DISL:MBLA:1,2008-02-04T16:30:00Z,30.4367,-88.0117,14.2,5.76,146.6,-9999.0,'1111122,1111122,1111122' 
DISL,ioos:station:DISL:MBLA:1,2008-02-04T17:00:00Z,30.4367,-88.0117,14.2,6.89,146.3,-9999.0,'1111122,1111122,1111122' 
DISL,ioos:station:DISL:MBLA:1,2008-02-04T17:30:00Z,30.4367,-88.0117,14.2,6.71,144.3,-9999.0,'1111122,1111122,1111122' 
DISL,ioos:station:DISL:MBLA:1,2008-02-04T18:00:00Z,30.4367,-88.0117,14.2,6.97,146.1,-9999.0,'1111122,1111122,1111122' 
DISL,ioos:station:DISL:MBLA:1,2008-02-04T18:30:00Z,30.4367,-88.0117,14.2,6.7,147.1,-9999.0,'1111122,1111122,1111122' 
DISL,ioos:station:DISL:MBLA:1,2008-02-04T19:00:00Z,30.4367,-88.0117,14.2,6.62,144.9,-9999.0,'1111122,1111122,1111122' 
DISL,ioos:station:DISL:MBLA:1,2008-02-04T19:30:00Z,30.4367,-88.0117,14.2,6.45,142.6,-9999.0,'1111122,1111122,1111122' 
DISL,ioos:station:DISL:MBLA:1,2008-02-04T20:00:00Z,30.4367,-88.0117,14.2,6.94,143.3,-9999.0,'1111122,1111122,1111122' 
DISL,ioos:station:DISL:MBLA:1,2008-02-04T20:30:00Z,30.4367,-88.0117,14.2,7.27,142.5,-9999.0,'1111122,1111122,1111122' 
DISL,ioos:station:DISL:MBLA:1,2008-02-04T21:00:00Z,30.4367,-88.0117,14.2,8.33,139.3,-9999.0,'1111122,1111122,1111122' 
DISL,ioos:station:DISL:MBLA:1,2008-02-04T21:30:00Z,30.4367,-88.0117,14.2,7.82,139.9,-9999.0,'1111122,1111122,1111122' 
DISL,ioos:station:DISL:MBLA:1,2008-02-04T22:00:00Z,30.4367,-88.0117,14.2,7.89,139.9,-9999.0,'1111122,1111122,1111122' 
DISL,ioos:station:DISL:MBLA:1,2008-02-04T22:30:00Z,30.4367,-88.0117,14.2,7.37,139.8,-9999.0,'1111122,1111122,1111122' 
DISL,ioos:station:DISL:MBLA:1,2008-02-04T23:00:00Z,30.4367,-88.0117,14.2,7.42,137.9,-9999.0,'1111122,1111122,1111122' 
DISL,ioos:station:DISL:MBLA:1,2008-02-04T23:30:00Z,30.4367,-88.0117,14.2,7.53,138.7,-9999.0,'1111122,1111122,1111122' 
DISL,ioos:station:DISL:MBLA:1,2008-02-05T00:00:00Z,30.4367,-88.0117,14.2,7.51,141.5,-9999.0,'1111122,1111122,1111122' 
DISL,ioos:station:DISL:MBLA:1,2008-02-05T00:30:00Z,30.4367,-88.0117,14.2,7.68,137.4,-9999.0,'1111122,1111122,1111122' 
DISL,ioos:station:DISL:MBLA:1,2008-02-05T01:00:00Z,30.4367,-88.0117,14.2,7.15,139.2,-9999.0,'1111122,1111122,1111122' 
DISL,ioos:station:DISL:MBLA:1,2008-02-05T01:30:00Z,30.4367,-88.0117,14.2,7.6,136.4,-9999.0,'1111122,1111122,1111122' 
DISL,ioos:station:DISL:MBLA:1,2008-02-05T02:00:00Z,30.4367,-88.0117,14.2,7.27,135.8,-9999.0,'1111122,1111122,1111122' 
DISL,ioos:station:DISL:MBLA:1,2008-02-05T02:30:00Z,30.4367,-88.0117,14.2,6.81,138.2,-9999.0,'1111122,1111122,1111122' 
DISL,ioos:station:DISL:MBLA:1,2008-02-05T03:00:00Z,30.4367,-88.0117,14.2,6.4,138.1,-9999.0,'1111122,1111122,1111122' 
DISL,ioos:station:DISL:MBLA:1,2008-02-05T03:30:00Z,30.4367,-88.0117,14.2,6.32,141.8,-9999.0,'1111122,1111122,1111122' 
DISL,ioos:station:DISL:MBLA:1,2008-02-05T04:00:00Z,30.4367,-88.0117,14.2,6.51,141.6,-9999.0,'1111122,1111122,1111122' 